Weather History for KJMR - September, 2012

Change the Weather History Date:

Saturday, September 29, 2012

  Actual Average Record
Temperature  
Mean Temperature 58 °F -  
Max Temperature 78 °F 64 °F 81 °F (1933)
Min Temperature 37 °F 37 °F 13 °F (1984)
Degree Days  
Heating Degree Days 8    
Growing Degree Days 8 (Base 50)    
Moisture  
Dew Point 39 °F    
Average Humidity 56    
Maximum Humidity 93    
Minimum Humidity 21    
Precipitation  
Precipitation 0.00 in - - ()
Sea Level Pressure  
Sea Level Pressure 30.09 in    
Wind  
Wind Speed 1 mph (NNE)    
Max Wind Speed 8 mph    
Max Gust Speed -    
Visibility 10 miles    
Events      
Averages and records for this station are not official NWS values.
T = Trace of Precipitation, MM = Missing Value Source: NWS Daily Summary

Daily Weather History Graph

Daily Weather History Graph

Search for Another Location

Airport or City:

Trip Planner

Search our weather history database for the weather conditions in past years. The results will help you decide how hot, cold, wet, or windy it might be!

Date:

Astronomy

Sep. 29, 2012 Rise Set
Actual Time 7:09 AM CDT 6:56 PM CDT
Civil Twilight 6:39 AM CDT 7:25 PM CDT
Nautical Twilight 6:05 AM CDT 8:00 PM CDT
Astronomical Twilight 5:29 AM CDT 8:35 PM CDT
Moon 6:26 PM CDT (9/29) 6:42 AM CDT (9/29)
Length of Visible Light 12h 45m
Length of Day
11h 46m
Full, 100% of the Moon is Illuminated
Sep 29
Full
Sep 29
Full
Oct 8
Last Quarter
Oct 15
New
Oct 21
First Quarter

Hourly Weather History & Observations

Time (CDT) Temp. Dew Point Humidity Pressure Visibility Wind Dir Wind Speed Gust Speed Precip Events Conditions
12:00 AM 46.4 °F 37.4 °F 71% 30.10 in 10.0 mi Calm Calm - N/A   Clear
12:20 AM 48.2 °F 41.0 °F 76% 30.10 in 10.0 mi Calm Calm - N/A   Clear
12:40 AM 46.4 °F 39.2 °F 76% 30.10 in 10.0 mi Calm Calm - N/A   Clear
1:00 AM 46.4 °F 37.4 °F 71% 30.10 in 10.0 mi Calm Calm - N/A   Clear
1:19 AM 46.4 °F 39.2 °F 76% 30.10 in 10.0 mi Calm Calm - N/A   Clear
1:40 AM 44.6 °F 39.2 °F 81% 30.10 in 10.0 mi Calm Calm - N/A   Clear
2:00 AM 44.6 °F 39.2 °F 81% 30.10 in 10.0 mi Calm Calm - N/A   Clear
2:20 AM 42.8 °F 37.4 °F 81% 30.10 in 10.0 mi Calm Calm - N/A   Clear
2:40 AM 44.6 °F 39.2 °F 81% 30.11 in 10.0 mi Calm Calm - N/A   Clear
3:00 AM 42.8 °F 37.4 °F 81% 30.10 in 10.0 mi Calm Calm - N/A   Clear
3:20 AM 42.8 °F 37.4 °F 81% 30.10 in 10.0 mi Calm Calm - N/A   Clear
3:40 AM 42.8 °F 37.4 °F 81% 30.10 in 10.0 mi Calm Calm - N/A   Clear
4:00 AM 42.8 °F 37.4 °F 81% 30.10 in 10.0 mi Calm Calm - N/A   Clear
4:20 AM 41.0 °F 37.4 °F 87% 30.10 in 10.0 mi Calm Calm - N/A   Clear
4:40 AM 41.0 °F 37.4 °F 87% 30.10 in 10.0 mi Calm Calm - N/A   Clear
5:00 AM 41.0 °F 37.4 °F 87% 30.10 in 10.0 mi Calm Calm - N/A   Clear
5:20 AM 42.8 °F 39.2 °F 87% 30.10 in 10.0 mi Calm Calm - N/A   Clear
5:39 AM 41.0 °F 37.4 °F 87% 30.11 in 10.0 mi Calm Calm - N/A   Clear
6:00 AM 41.0 °F 37.4 °F 87% 30.11 in 10.0 mi Calm Calm - N/A   Clear
6:19 AM 41.0 °F 37.4 °F 87% 30.12 in 10.0 mi Calm Calm - N/A   Clear
6:40 AM 39.2 °F 35.6 °F 87% 30.12 in 10.0 mi Calm Calm - N/A   Clear
7:20 AM 37.4 °F 35.6 °F 93% 30.13 in 10.0 mi Calm Calm - N/A   Clear
7:40 AM 37.4 °F 35.6 °F 93% 30.13 in 10.0 mi Calm Calm - N/A   Clear
8:00 AM 37.4 °F 35.6 °F 93% 30.14 in 10.0 mi Calm Calm - N/A   Clear
8:20 AM 42.8 °F 41.0 °F 93% 30.14 in 10.0 mi Calm Calm - N/A   Clear
8:40 AM 46.4 °F 42.8 °F 87% 30.14 in 10.0 mi Calm Calm - N/A   Clear
9:00 AM 51.8 °F 42.8 °F 71% 30.14 in 10.0 mi Calm Calm - N/A   Clear
9:20 AM 55.4 °F 42.8 °F 63% 30.14 in 10.0 mi Calm Calm - N/A   Clear
9:40 AM 59.0 °F 41.0 °F 51% 30.14 in 10.0 mi Calm Calm - N/A   Clear
10:00 AM 60.8 °F 41.0 °F 48% 30.14 in 10.0 mi Calm Calm - N/A   Clear
10:20 AM 64.4 °F 42.8 °F 45% 30.14 in 10.0 mi Calm Calm - N/A   Clear
10:40 AM 66.2 °F 42.8 °F 43% 30.14 in 10.0 mi Calm Calm - N/A   Clear
11:00 AM 69.8 °F 42.8 °F 38% 30.14 in 10.0 mi East 4.6 mph - N/A   Clear
11:19 AM 69.8 °F 41.0 °F 35% 30.14 in 10.0 mi Calm Calm - N/A   Clear
11:40 AM 71.6 °F 41.0 °F 33% 30.14 in 10.0 mi ESE 4.6 mph - N/A   Clear
12:00 PM 71.6 °F 41.0 °F 33% 30.13 in 10.0 mi East 4.6 mph - N/A   Clear
12:20 PM 73.4 °F 39.2 °F 29% 30.13 in 5.0 mi Calm Calm - N/A   Haze
12:40 PM 73.4 °F 37.4 °F 27% 30.12 in 10.0 mi Calm Calm - N/A   Clear
1:00 PM 75.2 °F 39.2 °F 27% 30.11 in 10.0 mi North 3.5 mph - N/A   Clear
1:20 PM 75.2 °F 37.4 °F 25% 30.10 in 10.0 mi NW 8.1 mph - N/A   Clear
1:40 PM 75.2 °F 35.6 °F 24% 30.10 in 10.0 mi NE 4.6 mph - N/A   Clear
2:00 PM 75.2 °F 35.6 °F 24% 30.09 in 10.0 mi Calm Calm - N/A   Clear
2:20 PM 77.0 °F 37.4 °F 24% 30.09 in 10.0 mi Calm Calm - N/A   Clear
2:40 PM 77.0 °F 35.6 °F 22% 30.08 in 10.0 mi Calm Calm - N/A   Clear
2:59 PM 78.8 °F 37.4 °F 23% 30.07 in 10.0 mi Calm Calm - N/A   Clear
3:20 PM 78.8 °F 37.4 °F 23% 30.07 in 10.0 mi North 3.5 mph - N/A   Clear
3:40 PM 78.8 °F 37.4 °F 23% 30.06 in 10.0 mi North 5.8 mph - N/A   Clear
4:00 PM 78.8 °F 35.6 °F 21% 30.05 in 10.0 mi NNW 5.8 mph - N/A   Clear
4:20 PM 78.8 °F 35.6 °F 21% 30.04 in 10.0 mi North 3.5 mph - N/A   Clear
4:40 PM 78.8 °F 35.6 °F 21% 30.04 in 10.0 mi NNW 8.1 mph - N/A   Clear
5:00 PM 78.8 °F 35.6 °F 21% 30.04 in 10.0 mi Calm Calm - N/A   Clear
5:20 PM 77.0 °F 35.6 °F 22% 30.04 in 10.0 mi Calm Calm - N/A   Clear
5:40 PM 75.2 °F 37.4 °F 25% 30.04 in 10.0 mi Calm Calm - N/A   Clear
6:00 PM 75.2 °F 37.4 °F 25% 30.04 in 10.0 mi Calm Calm - N/A   Clear
6:20 PM 73.4 °F 37.4 °F 27% 30.04 in 10.0 mi East 5.8 mph - N/A   Clear
6:40 PM 69.8 °F 37.4 °F 31% 30.04 in 10.0 mi Calm Calm - N/A   Clear
7:00 PM 69.8 °F 41.0 °F 35% 30.05 in 10.0 mi Calm Calm - N/A   Clear
7:20 PM 64.4 °F 39.2 °F 40% 30.05 in 10.0 mi Calm Calm - N/A   Clear
7:40 PM 64.4 °F 41.0 °F 42% 30.05 in 10.0 mi Calm Calm - N/A   Clear
8:00 PM 57.2 °F 41.0 °F 55% 30.06 in 10.0 mi Calm Calm - N/A   Clear
8:20 PM 55.4 °F 42.8 °F 63% 30.06 in 10.0 mi Calm Calm - N/A   Clear
8:40 PM 53.6 °F 41.0 °F 62% 30.06 in 10.0 mi Calm Calm - N/A   Clear
9:20 PM 51.8 °F 39.2 °F 62% 30.06 in 10.0 mi Calm Calm - N/A   Clear
9:40 PM 50.0 °F 41.0 °F 71% 30.06 in 10.0 mi Calm Calm - N/A   Clear
10:00 PM 50.0 °F 41.0 °F 71% 30.07 in 10.0 mi Calm Calm - N/A   Clear
10:20 PM 50.0 °F 39.2 °F 66% 30.07 in 10.0 mi Calm Calm - N/A   Clear
10:40 PM 50.0 °F 37.4 °F 62% 30.07 in 10.0 mi Calm Calm - N/A   Clear
10:59 PM 50.0 °F 37.4 °F 62% 30.07 in 10.0 mi East 3.5 mph - N/A   Clear
11:20 PM 53.6 °F 37.4 °F 54% 30.07 in 10.0 mi Calm Calm - N/A   Clear
11:40 PM 51.8 °F 37.4 °F 58% 30.07 in 10.0 mi Calm Calm - N/A   Clear